Flag for Canada Weather past 2 weeks in Steinbach, Manitoba, Canada

Now
61 °F

Refreshingly cool.


Feels Like: 61 °F
Forecast: 48 / 64 °F
Wind: 5 mph from North

Location: Winnipeg The Forks

Current Time: Jul 6, 2015 at 3:11:11 PM

Latest Report: Jul 6, 2015 at 2:00 PM


Visibility: N/A

Pressure: 30.11 "Hg

Humidity: 54%

Dew point: 44 °F

Location of SteinbachLocation

Historic Weather in Steinbach — Graph

°F

Steinbach temperature yesterday

Maximum temperature yesterday: 72 °F (at 5:00 PM)
Minimum temperature yesterday: 62 °F (at 11:00 PM)
Average temperature yesterday: 67 °F

Past Weeks' High & Low Weather Summary

 TemperatureHumidityPressure
High84 °F (Jul 4, 3:00 PM)99% (Jul 4, 10:00 PM)30.12 "Hg (Jul 4, 10:00 PM)
Low49 °F (Jul 6, 6:00 AM)35% (Jun 25, 4:00 PM)29.61 "Hg (Jul 4, 6:00 PM)
Average69 °F68%29.89 "Hg
* Reported Jun 21 1:00 PM — Jul 6 1:00 PM, Steinbach, Weather by CustomWeather, © 2015

Note: Actual official high and low records may vary slightly from our data, if they occured in-between our weather recording intervals... More about our weather records

Advertising

Steinbach weather history for previous 24 hours

 ConditionsComfort  
Time TempWeatherWind HumidityBarometerVisibility
1:00 PM
Mon, Jul 6
60 °FRefreshingly cool.8 mph56%30.12 "HgN/A
12:00 PM57 °FRefreshingly cool.9 mph57%30.12 "HgN/A
11:00 AM56 °FCool.7 mph64%30.12 "HgN/A
10:00 AM56 °FCool.7 mph66%30.11 "HgN/A
9:00 AM55 °FCool.8 mph72%30.09 "HgN/A
8:00 AM53 °FCool.6 mph77%30.09 "HgN/A
6:00 AM49 °FCool.7 mph81%30.04 "HgN/A
5:00 AM51 °FCool.6 mph75%30.03 "HgN/A
4:00 AM51 °FCool.3 mph74%30.02 "HgN/A
3:00 AM53 °FCool.8 mph72%29.98 "HgN/A
2:00 AM55 °FCool.8 mph75%29.98 "HgN/A
1:00 AM56 °FCool.7 mph77%29.98 "HgN/A
12:00 AM59 °FCool.8 mph75%29.94 "HgN/A
11:00 PM
Sun, Jul 5
62 °FCool.8 mph78%29.91 "HgN/A
10:00 PM66 °FMild.9 mph61%29.88 "HgN/A
9:00 PM68 °FMild.3 mph61%29.85 "HgN/A
8:00 PM70 °FMild.6 mph62%29.84 "HgN/A
7:00 PM72 °FMild.6 mph55%29.81 "HgN/A
6:00 PM72 °FMild.6 mph58%29.80 "HgN/A
5:00 PM72 °FMild.5 mph57%29.79 "HgN/A
4:00 PM71 °FMild.3 mph63%29.78 "HgN/A
3:00 PM68 °FMild.2 mph81%29.78 "HgN/A
Weather by CustomWeather, © 2015

See weather overviewHow to use our weather pages